This is the latest recevied weather packets stored in our database for station/object SR9WXP. If no packets are shown the sender has not sent any weather packets the latest 1 day(s).
| Time | Temp. | Humidity | Pressure | Rain* | Wind** | Luminosity | Snow |
|---|---|---|---|---|---|---|---|
| 1777996829 | 15° C | 47% | 851.3 hPa | - | 4.02 m/s, 183° | - | - |
| 1777996770 | 15° C | 47% | 851.3 hPa | - | 4.47 m/s, 183° | - | - |
| 1777996650 | 15° C | 46% | 851.3 hPa | - | 4.02 m/s, 181° | - | - |
| 1777996526 | 15.56° C | 47% | 851.3 hPa | - | 4.47 m/s, 190° | - | - |
| 1777996407 | 15.56° C | 46% | 851.3 hPa | - | 4.02 m/s, 187° | - | - |
| 1777996286 | 15.56° C | 46% | 851.3 hPa | - | 3.58 m/s, 186° | - | - |
| 1777996225 | 15.56° C | 46% | 851.3 hPa | - | 3.13 m/s, 188° | - | - |
| 1777996167 | 15.56° C | 46% | 851.3 hPa | - | 3.58 m/s, 191° | - | - |
| 1777996047 | 16.11° C | 46% | 851.2 hPa | - | 4.47 m/s, 193° | - | - |
| 1777995922 | 16.11° C | 46% | 851.2 hPa | - | 5.36 m/s, 189° | - | - |
| 1777995813 | 16.67° C | 46% | 851.2 hPa | - | 4.92 m/s, 187° | - | - |
| 1777995684 | 17.22° C | 46% | 851.1 hPa | - | 4.47 m/s, 189° | - | - |
| 1777995622 | 17.22° C | 46% | 851.1 hPa | - | 4.47 m/s, 186° | - | - |
| 1777995562 | 17.22° C | 46% | 851.1 hPa | - | 4.02 m/s, 187° | - | - |
| 1777995443 | 17.22° C | 46% | 851 hPa | - | 3.58 m/s, 185° | - | - |
| 1777995318 | 16.67° C | 46% | 851.1 hPa | - | 2.68 m/s, 168° | - | - |
| 1777995200 | 16.67° C | 47% | 851.1 hPa | - | 3.13 m/s, 175° | - | - |
| 1777995079 | 16.67° C | 47% | 851.1 hPa | - | 3.13 m/s, 193° | - | - |
| 1777995019 | 16.67° C | 47% | 851.1 hPa | - | 2.68 m/s, 187° | - | - |
| 1777994959 | 16.67° C | 47% | 851.1 hPa | - | 2.68 m/s, 185° | - | - |
| 1777994839 | 16.67° C | 47% | 851.2 hPa | - | 3.58 m/s, 185° | - | - |
| 1777994715 | 16.67° C | 47% | 851.2 hPa | - | 3.58 m/s, 183° | - | - |
| 1777994597 | 16.11° C | 47% | 851.2 hPa | - | 3.13 m/s, 184° | - | - |
| 1777994477 | 16.11° C | 47% | 851.2 hPa | - | 2.68 m/s, 175° | - | - |
| 1777994415 | 16.11° C | 47% | 851.2 hPa | - | 2.68 m/s, 178° | - | - |
* Rain since midnight (hover to see other rain measurements)
** Current wind speed in m/s (hover to see current wind gust speed)